Weather History for Beatrice, NE

Change the Weather History Date:

Tuesday, January 2, 2001

  Actual Average Record
Temperature  
Mean Temperature 10 °F -  
Max Temperature 21 °F 31 °F 62 °F (1997)
Min Temperature 0 °F 14 °F -7 °F (1979)
Degree Days  
Heating Degree Days 54    
Moisture  
Dew Point 8 °F    
Average Humidity 85    
Maximum Humidity 92    
Minimum Humidity 73    
Precipitation  
Precipitation 0.02 in - - ()
Sea Level Pressure  
Sea Level Pressure 30.53 in    
Wind  
Wind Speed 6 mph (SSW)    
Max Wind Speed 16 mph    
Max Gust Speed -    
Visibility 10 miles    
Events      
Averages and records for this station are not official NWS values.
T = Trace of Precipitation, MM = Missing Value Source: NWS Daily Summary

Daily Weather History Graph

Daily Weather History Graph

Search for Another Location

Airport:

Trip Planner

Search our weather history database for the weather conditions in past years. The results will help you decide how hot, cold, wet, or windy it might be!

Date:

Astronomy

Jan. 02, 2001 Rise Set
Actual Time 7:49 AM CST 5:12 PM CST
Civil Twilight 7:19 AM CST 5:43 PM CST
Nautical Twilight 6:45 AM CST 6:17 PM CST
Astronomical Twilight 6:12 AM CST 6:50 PM CST
Moon 12:26 PM CST (1/2) No Moon Set
Length of Visible Light 10h 23m
Length of Day
9h 22m
Waxing Crescent, 48% of the Moon is Illuminated
Jan 2
Waxing Crescent
Jan 2
First Quarter
Jan 9
Full
Jan 16
Last Quarter
Jan 24
New

Hourly Weather History & Observations

Time (CST) Temp. Windchill Dew Point Humidity Pressure Visibility Wind Dir Wind Speed Gust Speed Precip Events Conditions
12:11 AM 6.8 °F -5.9 °F 1.4 °F 79% 30.59 in 10.0 mi West 8.1 mph - N/A   Overcast
12:30 AM 6.8 °F -3.5 °F 3.2 °F 85% 30.58 in 10.0 mi West 5.8 mph - N/A   Overcast
12:48 AM 6.8 °F -2.0 °F 3.2 °F 85% 30.59 in 7.0 mi West 4.6 mph - N/A   Overcast
1:29 AM 6.8 °F - 3.2 °F 85% 30.59 in 10.0 mi Calm Calm - N/A   Overcast
1:48 AM 6.8 °F - 3.2 °F 85% 30.58 in 10.0 mi Calm Calm - N/A   Overcast
2:35 AM 5.0 °F - 3.2 °F 92% 30.58 in 10.0 mi Calm Calm - N/A   Overcast
2:57 AM 5.0 °F - 1.4 °F 85% 30.58 in 10.0 mi Calm Calm - N/A   Overcast
3:08 AM 3.2 °F - -0.4 °F 85% 30.59 in 10.0 mi Calm Calm - N/A   Overcast
3:29 AM 1.4 °F - -0.4 °F 92% 30.59 in 10.0 mi Calm Calm - N/A   Overcast
3:51 AM 1.4 °F - -2.2 °F 85% 30.59 in 10.0 mi Calm Calm - N/A   Overcast
4:08 AM 1.4 °F - -2.2 °F 85% 30.58 in 10.0 mi Calm Calm - N/A   Overcast
4:31 AM -0.4 °F - -2.2 °F 92% 30.57 in 10.0 mi Calm Calm - N/A   Overcast
4:48 AM -0.4 °F - -4.0 °F 85% 30.58 in 10.0 mi Calm Calm - N/A   Overcast
5:10 AM -0.4 °F - -2.2 °F 92% 30.58 in 10.0 mi Calm Calm - N/A   Overcast
5:28 AM 1.4 °F -8.3 °F -0.4 °F 92% 30.58 in 10.0 mi SW 4.6 mph - N/A   Overcast
5:50 AM 6.8 °F -4.8 °F 3.2 °F 85% 30.58 in 10.0 mi SW 6.9 mph - N/A   Overcast
6:30 AM 8.6 °F -1.3 °F 6.8 °F 92% 30.59 in 10.0 mi SSW 5.8 mph - N/A   Overcast
6:48 AM 8.6 °F -2.6 °F 6.8 °F 92% 30.60 in 10.0 mi SW 6.9 mph - N/A   Overcast
7:10 AM 8.6 °F -6.3 °F 6.8 °F 92% 30.60 in 10.0 mi SSW 11.5 mph - N/A   Overcast
7:31 AM 8.6 °F -4.7 °F 6.8 °F 92% 30.59 in 7.0 mi SW 9.2 mph - N/A   Overcast
8:08 AM 8.6 °F -5.5 °F 6.8 °F 92% 30.59 in 7.0 mi SSW 10.4 mph - N/A   Overcast
8:48 AM 6.8 °F -4.8 °F 3.2 °F 85% 30.60 in 10.0 mi South 6.9 mph - N/A   Mostly Cloudy
9:08 AM 8.6 °F -5.5 °F 5.0 °F 85% 30.59 in 10.0 mi South 10.4 mph - N/A   Mostly Cloudy
9:49 AM 8.6 °F -7.0 °F 6.8 °F 92% 30.59 in 10.0 mi South 12.7 mph - N/A   Overcast
10:08 AM 8.6 °F -5.5 °F 6.8 °F 92% 30.60 in 10.0 mi South 10.4 mph - N/A   Overcast
10:31 AM 10.4 °F -1.5 °F 6.8 °F 85% 30.60 in 10.0 mi SSW 8.1 mph - N/A   Overcast
10:53 AM 10.4 °F -3.3 °F 6.8 °F 85% 30.60 in 10.0 mi South 10.4 mph - N/A   Overcast
11:33 AM 12.2 °F -1.0 °F 8.6 °F 85% 30.57 in 10.0 mi South 10.4 mph - N/A   Overcast
11:54 AM 12.2 °F -2.5 °F 8.6 °F 85% 30.56 in 10.0 mi SSW 12.7 mph - N/A   Mostly Cloudy
12:10 PM 14.0 °F -0.2 °F 8.6 °F 79% 30.55 in 10.0 mi SSW 12.7 mph - N/A   Overcast
12:31 PM 15.8 °F 2.7 °F 8.6 °F 73% 30.54 in 10.0 mi SSW 11.5 mph - N/A   Overcast
12:51 PM 15.8 °F - 10.4 °F 79% 30.53 in 10.0 mi North - - N/A   Mostly Cloudy
1:11 PM 17.6 °F - 10.4 °F 73% 30.51 in 10.0 mi North - - N/A   Overcast
1:33 PM 17.6 °F - 10.4 °F 73% 30.50 in 10.0 mi North - - N/A   Overcast
1:51 PM 17.6 °F - 12.2 °F 79% 30.49 in 10.0 mi North - - N/A   Overcast
2:10 PM 19.4 °F - 12.2 °F 74% 30.49 in 10.0 mi North - - N/A   Overcast
2:33 PM 19.4 °F - 14.0 °F 80% 30.48 in 10.0 mi North - - N/A   Overcast
2:50 PM 19.4 °F - 14.0 °F 80% 30.47 in 10.0 mi North - - N/A   Overcast
3:13 PM 19.4 °F - 14.0 °F 80% 30.48 in 10.0 mi North - - N/A   Overcast
3:30 PM 19.4 °F - 15.8 °F 86% 30.48 in 10.0 mi North - - N/A   Overcast
3:53 PM 19.4 °F 5.0 °F 15.8 °F 86% 30.47 in 10.0 mi SSW 16.1 mph - N/A   Overcast
4:30 PM - - - N/A% 30.45 in - SSW 15.0 mph - 0.02 in   Unknown
4:50 PM 21.2 °F 7.8 °F 15.8 °F 80% 30.45 in 10.0 mi SSW 15.0 mph - 0.02 in   Overcast
5:30 PM 21.2 °F 8.3 °F 15.8 °F 80% 30.45 in 10.0 mi South 13.8 mph - N/A   Overcast
5:51 PM 21.2 °F 9.5 °F 15.8 °F 80% 30.46 in 10.0 mi SSW 11.5 mph - N/A   Overcast
6:10 PM 21.2 °F 8.9 °F 17.6 °F 86% 30.46 in 10.0 mi SSW 12.7 mph - N/A   Overcast
6:31 PM 21.2 °F 8.9 °F 17.6 °F 86% 30.46 in 10.0 mi SSW 12.7 mph - N/A   Overcast
6:53 PM 21.2 °F 10.1 °F 17.6 °F 86% 30.46 in 10.0 mi SSW 10.4 mph - N/A   Overcast
7:10 PM 21.2 °F 10.9 °F 17.6 °F 86% 30.45 in 10.0 mi South 9.2 mph - N/A   Overcast
7:31 PM 21.2 °F 10.9 °F 17.6 °F 86% 30.44 in 10.0 mi SSW 9.2 mph - N/A   Overcast
7:50 PM 21.2 °F 10.1 °F 17.6 °F 86% 30.43 in 10.0 mi South 10.4 mph - N/A   Overcast
8:11 PM 21.2 °F 10.1 °F 15.8 °F 80% 30.43 in 10.0 mi South 10.4 mph - N/A   Scattered Clouds
8:30 PM 19.4 °F 7.9 °F 15.8 °F 86% 30.42 in 10.0 mi South 10.4 mph - N/A   Clear
8:51 PM 19.4 °F 9.5 °F 15.8 °F 86% 30.41 in 10.0 mi South 8.1 mph - N/A   Clear
9:13 PM 19.4 °F 9.5 °F 17.6 °F 93% 30.40 in 10.0 mi South 8.1 mph - N/A   Clear
9:30 PM 19.4 °F 9.5 °F 15.8 °F 86% 30.40 in 10.0 mi SSW 8.1 mph - N/A   Clear
10:11 PM 19.4 °F 7.2 °F 15.8 °F 86% 30.38 in 7.0 mi SSW 11.5 mph - N/A   Clear
10:34 PM 19.4 °F 7.9 °F 15.8 °F 86% 30.37 in 7.0 mi South 10.4 mph - N/A   Clear
10:57 PM 19.4 °F 8.6 °F 17.6 °F 93% 30.37 in 7.0 mi SSW 9.2 mph - N/A   Clear
11:11 PM 21.2 °F 10.9 °F 17.6 °F 86% 30.37 in 7.0 mi SSW 9.2 mph - N/A   Clear
11:29 PM 19.4 °F 8.6 °F 17.6 °F 93% 30.36 in 7.0 mi SSW 9.2 mph - N/A   Clear